Location: Saint-Hippolyte
(43.6394°N, 4.7559°E)
Time: 16:06:32
(UTC+00:00)

Cosmos 1656 - Pass Details

Date: 24 October 2020
Orbit: 796 x 851 km, 71.1° (Epoch: 23 November)

Event Time Altitude Azimuth Distance (km) Brightness Sun altitude
Rises 18:13:50 0° 191° (S) 3,322 6.9 -17.1°
Reaches altitude 10° 18:16:15 10° 187° (S) 2,403 6.1 -17.5°
Maximum altitude 18:21:39 58° 109° (ESE) 962 3.6 -18.5°
Enters shadow 18:26:26 14° 34° (NE) 2,192 5.6 -19.4°
